• In Moldova, Republic
  • List of Countries
  • For 7 days
  • Water Temperature
  • Satellite Maps
  • Weather Map
  • Weather Widgets
  • user-avatar
    Login

    Hourly Weather Berat

    Today, 23 August, Wednesday

    Time Temperature Precipitation Wind Pressure Humidity
    00:00 +19°C° 0 mm 2 mps 744 mmHg 49%
    01:00 +19°C° 0 mm 2 mps 744 mmHg 48%
    02:00 +19°C° 0 mm 2 mps 744 mmHg 48%
    03:00 +18°C° 0 mm 2 mps 744 mmHg 49%
    04:00 +18°C° 0 mm 2 mps 744 mmHg 49%
    05:00 +19°C° 0 mm 2 mps 745 mmHg 46%
    06:00 +21°C° 0 mm 2 mps 745 mmHg 43%
    07:00 +24°C° 0 mm 2 mps 745 mmHg 41%
    08:00 +26°C° 0 mm 2 mps 745 mmHg 38%
    09:00 +28°C° 0 mm 1 mps 745 mmHg 35%
    10:00 +30°C° 0 mm 1 mps 746 mmHg 32%
    11:00 +31°C° 0 mm 2 mps 745 mmHg 30%
    12:00 +31°C° 0 mm 3 mps 745 mmHg 28%
    13:00 +33°C° 0 mm 4 mps 745 mmHg 27%
    14:00 +32°C° 0 mm 4 mps 745 mmHg 27%
    15:00 +32°C° 0 mm 4 mps 745 mmHg 28%
    16:00 +32°C° 0 mm 4 mps 745 mmHg 29%
    17:00 +28°C° 0 mm 4 mps 745 mmHg 35%
    18:00 +26°C° 0 mm 3 mps 745 mmHg 41%
    19:00 +23°C° 0 mm 2 mps 745 mmHg 47%
    20:00 +23°C° 0 mm 2 mps 745 mmHg 48%
    21:00 +21°C° 0 mm 2 mps 746 mmHg 49%
    22:00 +20°C° 0 mm 2 mps 746 mmHg 51%
    23:00 +20°C° 0 mm 2 mps 746 mmHg 50%

    Tomorrow, 24 August, Thursday

    Time Temperature Precipitation Wind Pressure Humidity
    00:00 +20°C° 0 mm 2 mps 746 mmHg 49%
    01:00 +20°C° 0 mm 2 mps 746 mmHg 48%
    02:00 +20°C° 0 mm 2 mps 746 mmHg 48%
    03:00 +19°C° 0 mm 2 mps 746 mmHg 47%
    04:00 +19°C° 0 mm 2 mps 746 mmHg 47%
    05:00 +21°C° 0 mm 2 mps 746 mmHg 45%
    06:00 +23°C° 0 mm 2 mps 747 mmHg 42%
    07:00 +25°C° 0 mm 2 mps 747 mmHg 39%
    08:00 +27°C° 0 mm 2 mps 747 mmHg 35%
    09:00 +29°C° 0 mm 1 mps 747 mmHg 31%
    10:00 +31°C° 0 mm 1 mps 747 mmHg 27%
    11:00 +32°C° 0 mm 2 mps 747 mmHg 26%
    12:00 +34°C° 0 mm 3 mps 747 mmHg 24%
    13:00 +35°C° 0 mm 3 mps 747 mmHg 23%
    14:00 +34°C° 0 mm 4 mps 746 mmHg 23%
    15:00 +34°C° 0 mm 4 mps 746 mmHg 24%
    16:00 +34°C° 0 mm 4 mps 746 mmHg 25%
    17:00 +30°C° 0 mm 3 mps 746 mmHg 30%
    18:00 +28°C° 0 mm 3 mps 746 mmHg 36%
    19:00 +25°C° 0 mm 2 mps 747 mmHg 42%
    20:00 +24°C° 0 mm 2 mps 747 mmHg 41%
    21:00 +24°C° 0 mm 2 mps 747 mmHg 41%
    22:00 +24°C° 0 mm 2 mps 747 mmHg 41%
    23:00 +23°C° 0 mm 2 mps 747 mmHg 40%

    Day after tomorrow, 25 August, Friday

    Time Temperature Precipitation Wind Pressure Humidity
    00:00 +23°C° 0 mm 2 mps 747 mmHg 39%
    01:00 +23°C° 0 mm 2 mps 747 mmHg 37%
    02:00 +21°C° 0 mm 2 mps 747 mmHg 36%
    03:00 +21°C° 0 mm 2 mps 747 mmHg 35%
    04:00 +21°C° 0 mm 2 mps 747 mmHg 34%
    05:00 +24°C° 0 mm 2 mps 747 mmHg 33%
    06:00 +25°C° 0 mm 2 mps 748 mmHg 31%
    07:00 +27°C° 0 mm 2 mps 748 mmHg 30%
    08:00 +29°C° 0 mm 2 mps 748 mmHg 27%
    09:00 +31°C° 0 mm 1 mps 748 mmHg 24%
    10:00 +34°C° 0 mm 1 mps 748 mmHg 20%
    11:00 +35°C° 0 mm 2 mps 748 mmHg 19%
    12:00 +36°C° 0 mm 2 mps 747 mmHg 18%
    13:00 +37°C° 0 mm 3 mps 747 mmHg 17%
    14:00 +36°C° 0 mm 3 mps 747 mmHg 18%
    15:00 +36°C° 0 mm 3 mps 746 mmHg 19%
    16:00 +36°C° 0 mm 4 mps 746 mmHg 20%
    17:00 +33°C° 0 mm 3 mps 746 mmHg 25%
    18:00 +29°C° 0 mm 2 mps 746 mmHg 30%
    19:00 +26°C° 0 mm 2 mps 746 mmHg 36%
    20:00 +26°C° 0 mm 2 mps 746 mmHg 36%
    21:00 +25°C° 0 mm 2 mps 747 mmHg 36%
    22:00 +24°C° 0 mm 2 mps 747 mmHg 36%
    23:00 +24°C° 0 mm 2 mps 747 mmHg 36%

    26 August, Saturday

    Time Temperature Precipitation Wind Pressure Humidity
    00:00 +24°C° 0 mm 2 mps 747 mmHg 36%
    01:00 +23°C° 0 mm 2 mps 746 mmHg 35%
    02:00 +23°C° 0 mm 2 mps 746 mmHg 36%
    03:00 +23°C° 0 mm 2 mps 746 mmHg 37%
    04:00 +21°C° 0 mm 2 mps 746 mmHg 38%
    05:00 +24°C° 0 mm 2 mps 746 mmHg 37%
    06:00 +25°C° 0 mm 2 mps 746 mmHg 36%
    07:00 +27°C° 0 mm 2 mps 747 mmHg 34%
    08:00 +29°C° 0 mm 2 mps 747 mmHg 30%
    09:00 +32°C° 0 mm 1 mps 747 mmHg 25%
    10:00 +34°C° 0 mm 1 mps 747 mmHg 21%
    11:00 +36°C° 0 mm 2 mps 746 mmHg 20%
    12:00 +37°C° 0 mm 2 mps 746 mmHg 18%
    13:00 +38°C° 0 mm 3 mps 745 mmHg 17%
    14:00 +37°C° 0 mm 3 mps 745 mmHg 18%
    15:00 +37°C° 0 mm 3 mps 745 mmHg 19%
    16:00 +36°C° 0 mm 3 mps 745 mmHg 20%
    17:00 +33°C° 0 mm 3 mps 745 mmHg 25%
    18:00 +30°C° 0 mm 2 mps 745 mmHg 30%
    19:00 +27°C° 0 mm 1 mps 745 mmHg 35%
    20:00 +26°C° 0 mm 1 mps 745 mmHg 36%
    21:00 +26°C° 0 mm 1 mps 745 mmHg 37%
    22:00 +25°C° 0 mm 1 mps 746 mmHg 37%
    23:00 +25°C° 0 mm 1 mps 745 mmHg 38%

    27 August, Sunday

    Time Temperature Precipitation Wind Pressure Humidity
    00:00 +24°C° 0 mm 2 mps 745 mmHg 38%
    01:00 +24°C° 0 mm 2 mps 745 mmHg 39%
    02:00 +24°C° 0 mm 2 mps 745 mmHg 39%
    03:00 +24°C° 0 mm 2 mps 745 mmHg 40%
    04:00 +23°C° 0 mm 2 mps 745 mmHg 40%
    05:00 +25°C° 0 mm 1 mps 745 mmHg 38%
    06:00 +27°C° 0 mm 1 mps 745 mmHg 36%
    07:00 +28°C° 0 mm 1 mps 745 mmHg 34%
    08:00 +31°C° 0 mm 1 mps 745 mmHg 29%
    09:00 +33°C° 0 mm 1 mps 745 mmHg 25%
    10:00 +35°C° 0 mm 1 mps 745 mmHg 20%
    11:00 +37°C° 0 mm 2 mps 744 mmHg 19%
    12:00 +38°C° 0 mm 3 mps 744 mmHg 18%
    13:00 +38°C° 0 mm 3 mps 744 mmHg 17%
    14:00 +38°C° 0 mm 3 mps 743 mmHg 18%
    15:00 +37°C° 0 mm 4 mps 743 mmHg 19%
    16:00 +37°C° 0 mm 4 mps 743 mmHg 20%
    17:00 +34°C° 0 mm 3 mps 743 mmHg 25%
    18:00 +30°C° 0 mm 2 mps 743 mmHg 30%
    19:00 +27°C° 0 mm 1 mps 743 mmHg 35%
    20:00 +27°C° 0 mm 1 mps 743 mmHg 35%
    21:00 +26°C° 0 mm 1 mps 743 mmHg 35%
    22:00 +26°C° 0 mm 1 mps 743 mmHg 34%
    23:00 +25°C° 0 mm 1 mps 743 mmHg 34%

    28 August, Monday

    Time Temperature Precipitation Wind Pressure Humidity
    00:00 +25°C° 0 mm 1 mps 743 mmHg 34%
    01:00 +25°C° 0 mm 1 mps 743 mmHg 34%
    02:00 +25°C° 0 mm 1 mps 743 mmHg 35%
    03:00 +24°C° 0 mm 1 mps 743 mmHg 35%
    04:00 +24°C° 0 mm 1 mps 743 mmHg 36%
    05:00 +25°C° 0 mm 1 mps 743 mmHg 35%
    06:00 +27°C° 0 mm 1 mps 743 mmHg 33%
    07:00 +29°C° 0 mm 1 mps 743 mmHg 31%
    08:00 +31°C° 0 mm 1 mps 743 mmHg 27%
    09:00 +33°C° 0 mm 1 mps 743 mmHg 23%
    10:00 +37°C° 0 mm 2 mps 743 mmHg 19%
    11:00 +37°C° 0 mm 2 mps 743 mmHg 19%
    12:00 +38°C° 0 mm 3 mps 742 mmHg 18%
    13:00 +40°C° 0 mm 4 mps 742 mmHg 17%
    14:00 +38°C° 0 mm 4 mps 742 mmHg 20%
    15:00 +37°C° 0 mm 4 mps 741 mmHg 22%
    16:00 +36°C° 0 mm 4 mps 741 mmHg 24%
    17:00 +34°C° 0 mm 3 mps 741 mmHg 32%
    18:00 +30°C° 0 mm 3 mps 741 mmHg 39%
    19:00 +27°C° 0 mm 2 mps 742 mmHg 46%
    20:00 +27°C° 0 mm 2 mps 742 mmHg 46%
    21:00 +26°C° 0 mm 1 mps 742 mmHg 47%
    22:00 +26°C° 0 mm 1 mps 742 mmHg 47%
    23:00 +25°C° 0 mm 1 mps 742 mmHg 45%
    Show more